When you browse on this site, cookies collect data to enhance your experience and personalize the content and advertising you see.
Visit our Privacy Policy to learn more. By continuing to use the site, you agree to this use of cookies and data.
  • In Hungary
  • List of Countries
  • For 7 days
  • Water Temperature
  • Satellite Maps
  • Weather Map
  • News
  • Weather Widgets
  • user-avatar
    Login

    Hourly Weather Kazahskiy

    Today, 21 November, Wednesday

    Time Temperature Precipitation Wind Pressure Humidity
    00:00 -4°C° 0 mm 2 mps 758 mmHg 89%
    01:00 -4°C° 0 mm 2 mps 758 mmHg 90%
    02:00 -5°C° 0 mm 2 mps 757 mmHg 90%
    03:00 -5°C° 0 mm 2 mps 757 mmHg 92%
    04:00 -6°C° 0 mm 3 mps 756 mmHg 92%
    05:00 -5°C° 0 mm 3 mps 756 mmHg 92%
    06:00 -5°C° 0 mm 3 mps 755 mmHg 92%
    07:00 -5°C° 0.1 mm 4 mps 755 mmHg 90%
    08:00 -5°C° 0.1 mm 4 mps 754 mmHg 89%
    09:00 -5°C° 0 mm 5 mps 753 mmHg 87%
    10:00 -5°C° 0.2 mm 5 mps 753 mmHg 86%
    11:00 -5°C° 0.2 mm 5 mps 752 mmHg 84%
    12:00 -5°C° 0.2 mm 5 mps 752 mmHg 82%
    13:00 -5°C° 0 mm 5 mps 752 mmHg 82%
    14:00 -5°C° 0 mm 5 mps 751 mmHg 81%
    15:00 -5°C° 0 mm 5 mps 751 mmHg 80%
    16:00 -5°C° 0 mm 5 mps 751 mmHg 83%
    17:00 -5°C° 0 mm 5 mps 751 mmHg 85%
    18:00 -5°C° 0 mm 5 mps 751 mmHg 87%
    19:00 -5°C° 0 mm 5 mps 751 mmHg 86%
    20:00 -5°C° 0 mm 5 mps 751 mmHg 85%
    21:00 -6°C° 0 mm 5 mps 751 mmHg 84%
    22:00 -6°C° 0 mm 5 mps 751 mmHg 83%
    23:00 -7°C° 0 mm 5 mps 751 mmHg 82%

    Tomorrow, 22 November, Thursday

    Time Temperature Precipitation Wind Pressure Humidity
    00:00 -8°C° 0 mm 5 mps 751 mmHg 81%
    01:00 -8°C° 0 mm 4 mps 751 mmHg 82%
    02:00 -8°C° 0 mm 4 mps 752 mmHg 84%
    03:00 -9°C° 0 mm 4 mps 752 mmHg 85%
    04:00 -9°C° 0 mm 4 mps 752 mmHg 87%
    05:00 -9°C° 0 mm 4 mps 752 mmHg 89%
    06:00 -8°C° 0 mm 3 mps 752 mmHg 90%
    07:00 -9°C° 0 mm 4 mps 752 mmHg 89%
    08:00 -9°C° 0 mm 4 mps 752 mmHg 87%
    09:00 -8°C° 0 mm 4 mps 752 mmHg 86%
    10:00 -8°C° 0 mm 4 mps 751 mmHg 83%
    11:00 -7°C° 0 mm 4 mps 751 mmHg 80%
    12:00 -6°C° 0 mm 5 mps 750 mmHg 76%
    13:00 -6°C° 0 mm 5 mps 750 mmHg 77%
    14:00 -6°C° 0 mm 5 mps 749 mmHg 78%
    15:00 -7°C° 0 mm 5 mps 749 mmHg 79%
    16:00 -7°C° 0 mm 5 mps 748 mmHg 79%
    17:00 -7°C° 0 mm 5 mps 748 mmHg 79%
    18:00 -7°C° 0 mm 5 mps 747 mmHg 79%
    19:00 -8°C° 0 mm 6 mps 747 mmHg 79%
    20:00 -8°C° 0 mm 6 mps 746 mmHg 80%
    21:00 -8°C° 0 mm 7 mps 745 mmHg 80%
    22:00 -8°C° 0.3 mm 7 mps 744 mmHg 83%
    23:00 -8°C° 0.3 mm 7 mps 743 mmHg 86%

    Day after tomorrow, 23 November, Friday

    Time Temperature Precipitation Wind Pressure Humidity
    00:00 -7°C° 0.3 mm 8 mps 742 mmHg 89%
    01:00 -7°C° 0.3 mm 8 mps 741 mmHg 87%
    02:00 -7°C° 0.3 mm 8 mps 741 mmHg 85%
    03:00 -7°C° 0.3 mm 7 mps 741 mmHg 82%
    04:00 -8°C° 0.2 mm 7 mps 741 mmHg 79%
    05:00 -8°C° 0.2 mm 7 mps 742 mmHg 75%
    06:00 -9°C° 0.2 mm 7 mps 742 mmHg 71%
    07:00 -9°C° 0 mm 7 mps 743 mmHg 73%
    08:00 -10°C° 0 mm 6 mps 744 mmHg 75%
    09:00 -10°C° 0 mm 6 mps 745 mmHg 77%
    10:00 -11°C° 0 mm 7 mps 746 mmHg 73%
    11:00 -11°C° 0 mm 8 mps 747 mmHg 69%
    12:00 -11°C° 0 mm 9 mps 747 mmHg 65%
    13:00 -11°C° 0 mm 9 mps 748 mmHg 66%
    14:00 -11°C° 0 mm 9 mps 749 mmHg 67%
    15:00 -11°C° 0 mm 9 mps 750 mmHg 67%
    16:00 -11°C° 0 mm 9 mps 751 mmHg 70%
    17:00 -12°C° 0 mm 9 mps 752 mmHg 73%
    18:00 -12°C° 0 mm 9 mps 753 mmHg 75%
    19:00 -12°C° 0 mm 9 mps 754 mmHg 77%
    20:00 -12°C° 0 mm 8 mps 755 mmHg 78%
    21:00 -12°C° 0 mm 7 mps 756 mmHg 79%
    22:00 -12°C° 0 mm 6 mps 756 mmHg 81%
    23:00 -12°C° 0 mm 6 mps 757 mmHg 82%

    24 November, Saturday

    Time Temperature Precipitation Wind Pressure Humidity
    00:00 -12°C° 0 mm 5 mps 758 mmHg 84%
    01:00 -12°C° 0 mm 5 mps 758 mmHg 84%
    02:00 -11°C° 0 mm 4 mps 759 mmHg 85%
    03:00 -11°C° 0 mm 4 mps 759 mmHg 86%
    04:00 -11°C° 0 mm 4 mps 759 mmHg 85%
    05:00 -11°C° 0 mm 4 mps 759 mmHg 84%
    06:00 -11°C° 0 mm 4 mps 760 mmHg 84%
    07:00 -12°C° 0 mm 5 mps 760 mmHg 82%
    08:00 -11°C° 0 mm 5 mps 760 mmHg 81%
    09:00 -11°C° 0 mm 5 mps 760 mmHg 80%
    10:00 -10°C° 0 mm 5 mps 760 mmHg 79%
    11:00 -9°C° 0 mm 6 mps 760 mmHg 78%
    12:00 -9°C° 0 mm 6 mps 759 mmHg 77%
    13:00 -8°C° 0 mm 6 mps 759 mmHg 77%
    14:00 -8°C° 0 mm 7 mps 759 mmHg 77%
    15:00 -8°C° 0 mm 7 mps 759 mmHg 76%
    16:00 -8°C° 0 mm 7 mps 759 mmHg 76%
    17:00 -8°C° 0 mm 7 mps 758 mmHg 75%
    18:00 -8°C° 0 mm 7 mps 758 mmHg 74%
    19:00 -8°C° 0 mm 7 mps 758 mmHg 76%
    20:00 -8°C° 0 mm 7 mps 758 mmHg 77%
    21:00 -7°C° 0 mm 7 mps 758 mmHg 78%
    22:00 -7°C° 0 mm 7 mps 758 mmHg 79%
    23:00 -7°C° 0 mm 7 mps 758 mmHg 80%

    25 November, Sunday

    Time Temperature Precipitation Wind Pressure Humidity
    00:00 -7°C° 0 mm 7 mps 757 mmHg 81%
    01:00 -7°C° 0 mm 7 mps 757 mmHg 82%
    02:00 -7°C° 0 mm 7 mps 757 mmHg 83%
    03:00 -7°C° 0 mm 7 mps 757 mmHg 83%
    04:00 -7°C° 0 mm 7 mps 757 mmHg 83%
    05:00 -7°C° 0 mm 7 mps 757 mmHg 84%
    06:00 -7°C° 0 mm 7 mps 756 mmHg 84%
    07:00 -6°C° 0.1 mm 6 mps 757 mmHg 84%
    08:00 -6°C° 0.1 mm 6 mps 757 mmHg 85%
    09:00 -6°C° 0.1 mm 6 mps 757 mmHg 85%
    10:00 -6°C° 0.1 mm 6 mps 757 mmHg 86%
    11:00 -5°C° 0.1 mm 5 mps 758 mmHg 86%
    12:00 -5°C° 0.1 mm 5 mps 758 mmHg 86%
    13:00 -4°C° 0.1 mm 4 mps 758 mmHg 88%
    14:00 -4°C° 0.1 mm 3 mps 758 mmHg 89%
    15:00 -4°C° 0.1 mm 3 mps 758 mmHg 91%
    16:00 -5°C° 0.1 mm 3 mps 758 mmHg 92%
    17:00 -4°C° 0.1 mm 2 mps 758 mmHg 93%
    18:00 -4°C° 0.1 mm 2 mps 758 mmHg 94%
    19:00 -4°C° 0.1 mm 2 mps 758 mmHg 94%
    20:00 -4°C° 0.1 mm 2 mps 758 mmHg 94%
    21:00 -5°C° 0.1 mm 3 mps 758 mmHg 94%
    22:00 -5°C° 0.1 mm 3 mps 757 mmHg 93%
    23:00 -5°C° 0.1 mm 3 mps 757 mmHg 92%

    26 November, Monday

    Time Temperature Precipitation Wind Pressure Humidity
    00:00 -6°C° 0.1 mm 3 mps 757 mmHg 90%
    01:00 -7°C° 0 mm 4 mps 756 mmHg 90%
    02:00 -7°C° 0 mm 4 mps 756 mmHg 89%
    03:00 -7°C° 0 mm 4 mps 756 mmHg 89%
    04:00 -5°C° 0 mm 4 mps 755 mmHg 89%
    05:00 -6°C° 0 mm 5 mps 755 mmHg 90%
    06:00 -6°C° 0 mm 5 mps 754 mmHg 91%
    07:00 -5°C° 0 mm 6 mps 754 mmHg 90%
    08:00 -4°C° 0 mm 6 mps 753 mmHg 90%
    09:00 -3°C° 0 mm 6 mps 753 mmHg 89%
    10:00 -3°C° 0 mm 7 mps 753 mmHg 88%
    11:00 -3°C° 0 mm 7 mps 752 mmHg 87%
    12:00 -2°C° 0 mm 7 mps 751 mmHg 86%
    13:00 -2°C° 0 mm 7 mps 751 mmHg 86%
    14:00 -2°C° 0 mm 7 mps 750 mmHg 87%
    15:00 -2°C° 0 mm 7 mps 750 mmHg 87%
    16:00 -2°C° 0.3 mm 7 mps 749 mmHg 88%
    17:00 -2°C° 0.3 mm 7 mps 749 mmHg 89%
    18:00 -2°C° 0.3 mm 7 mps 748 mmHg 90%
    19:00 -2°C° 0.8 mm 7 mps 748 mmHg 91%
    20:00 -2°C° 0.8 mm 6 mps 747 mmHg 91%
    21:00 -2°C° 0.8 mm 6 mps 746 mmHg 92%
    22:00 -2°C° 0.5 mm 6 mps 746 mmHg 92%
    23:00 -2°C° 0.5 mm 5 mps 745 mmHg 93%
    Show more